Погода в Филимоново

Россия / Ярославская область     56°46′42″N   39°06′09″E
темп.,
°C
ветер,
м/с
пор.,
м/с
влажн.,
%
обл.,
%
осадки,
мм/ч
давл.,
гПа
погр.,
м
8 мая, сб
сб800:00+6ю3973100 0.0 1013160
03:00+5ююв41174100 0.0 1012207
06:00+7ююв41273100 0.0 1011311
09:00+9ююв61272100 0.0 10111105
12:00+10ююв71481100 0.3 10091349
15:00+8ююв91790100 3.8 10071254
18:00+8ююв91792100 3.6 10051196
21:00+8юв51295100 10.4 1002778
9 мая, вс
вс900:00+9ююв41098100 4.7 1000681
03:00+8з2399100 5.1 1001129
06:00+5зсз71196100 0.8 1002560
09:00+2зсз71497100 2.0 1007593
12:00+3сз61397100 1.1 1010689
15:00+6сз71388100 2.2 10131170
18:00+8сз5137288 0.1 10151476
21:00+4зсз33845 0.1 101939
10 мая, пн
пн1000:00+2зсз310891 0.0 1022182
03:00+1сз38870 0.0 1025127
06:00+2сз26800 0.0 1027152
09:00+9ссз23555 0.0 1028608
12:00+12ссз23415 0.0 10291351
15:00+14сз12395 0.0 10291616
18:00+14с115019 0.0 10291193
21:00+8юв226360 0.0 103013
11 мая, вт
вт1100:00+7ююв22655 0.0 103111
03:00+5ююв11695 0.0 103210
06:00+7вюв22714 0.0 103240
09:00+12вюв23585 0.0 1032454
12:00+15вюв35495 0.0 1032921
15:00+17вюв34475 0.0 10301091
18:00+16вюв24605 0.0 1030244
21:00+10вюв33770 0.0 103021
12 мая, ср
ср1200:00+8вюв33805 0.0 103043
03:00+7вюв34810 0.0 102957
06:00+8в38830 0.0 1029185
09:00+14в58650 0.0 1028427
12:00+19вюв57615 0.0 1028812
15:00+21вюв576097 0.0 10261169
18:00+20вюв486949 0.1 1025479
21:00+14в3109095 0.2 1025188